Content
SEND FEEDBACK

Daily
Averages
Monthly
Summary
United States of America

NEW YORK - CENTRAL PARK, NEW YORK


Home > North America > United States > New York
Elevation: 14 feet     Latitude: 40 47N     Longitude: 073 58W

WEATHER
 
SELECT A DAY
Number of Records: 148,168;   Date Range: 11/1/95 - 8/12/14
 
SHARE

PRINT THIS DATA

[ ← Previous Day ]
WEATHER ALMANAC - JULY 23, 2013
[ Next Day → ]
[ °C ]   °F
Weather ElementAverageHighLow
Temperature77.8 °F84.9 °F (12:51 pm)73 °F (6:51 am)
Dewpoint71.6 °F73.9 °F (12:24 am)66.9 °F (3:51 pm)
Humidity82.5 %97 % (5:37 am)55 % (3:51 pm)
Barometer29.69 in29.82 in (12:24 am)29.57 in (4:51 pm)
Wind Speed4 mph10.4 mph (3:51 pm)
Wind Gust17.3 mph (7:44 am)
Weather ElementAverage
Visibility6.5 mi
Wind DirectionENE (63.6 °)

Weather ElementTotal
Precipitation0.77 in
Cooling Degree Days14 (Base 65)
Growing Degree Days29 (Base 50)
Averaged from 45 records on July 23, 2013
WEATHER CONDITIONS BREAKOUT
WIND DIRECTION BREAKOUT
WEATHER BY HOUR - JULY 23, 2013
[ °C ]   °F
Local TimeTemperatureDewpointHumidityBarometerVisibilityWind DirectionWind SpeedGust SpeedPrecipitationEventsConditions
12:24 AM75.9 °F73.9 °F94 %29.82 in3.0 miEast (100°)4.6 mphOvercast
12:33 AM75.9 °F73.9 °F94 %29.81 in2.5 miVariable3.5 mphOvercast
12:51 AM75.9 °F73.9 °F94 %29.79 in3.0 miSSE (160°)3.5 mphOvercast
1:51 AM75.0 °F73.0 °F94 %29.76 in5.0 miVariable3.5 mphOvercast
2:28 AM75.0 °F73.0 °F94 %29.77 in2.5 miVariable4.6 mphOvercast
2:51 AM75.9 °F73.0 °F91 %29.73 in2.5 miVariable3.5 mph0.01 inRainLight Rain
3:01 AM75.9 °F73.9 °F94 %29.75 in3.0 miCalm0.01 inRainLight Rain
3:08 AM75.9 °F73.9 °F94 %29.76 in2.0 miCalm0.01 inRainLight Rain
3:17 AM75.9 °F73.9 °F94 %29.75 in1.8 miVariable3.5 mph0.03 inRainLight Rain
3:36 AM75.9 °F73.9 °F94 %29.75 in1.5 miCalm0.06 inRainLight Rain
3:46 AM75.2 °F73.4 °F94 %29.75 in1.5 miVariable3.5 mph0.08 inRainRain
3:51 AM75.9 °F73.9 °F94 %29.72 in1.5 miVariable3.5 mph0.08 inRainRain
4:46 AM75.2 °F73.4 °F94 %29.72 in1.2 miCalm0.20 inRainRain
4:51 AM75.9 °F73.9 °F94 %29.69 in1.5 miVariable3.5 mph0.21 inRainLight Rain
4:59 AM75.0 °F73.9 °F96 %29.71 in2.0 miVariable4.6 mph0.01 inRainLight Rain
5:05 AM75.0 °F73.9 °F96 %29.72 in3.0 miVariable4.6 mph0.01 inOvercast
5:14 AM75.0 °F73.9 °F96 %29.72 in2.5 miVariable5.8 mph0.01 inRainLight Rain
5:17 AM75.0 °F73.0 °F94 %29.72 in3.0 miSW (230°)8.1 mph0.01 inRainLight Rain
5:24 AM75.0 °F73.0 °F94 %29.72 in6.0 miNorth0.01 inOvercast
5:37 AM73.9 °F73.0 °F97 %29.71 in5.0 miVariable4.6 mph0.01 inMostly Cloudy
5:46 AM73.4 °F71.6 °F94 %29.71 in5.0 miVariable4.6 mph0.01 inMostly Cloudy
5:51 AM73.9 °F72.0 °F93 %29.68 in5.0 miVariable4.6 mph0.01 inMostly Cloudy
6:51 AM73.0 °F71.1 °F93 %29.68 in9.0 miCalmClear
7:44 AM73.0 °F70.0 °F90 %29.71 in10.0 miVariable5.8 mph17.3 mphMostly Cloudy
7:51 AM73.9 °F71.1 °F91 %29.68 in10.0 miVariable5.8 mphMostly Cloudy
8:46 AM75.2 °F69.8 °F83 %29.69 in10.0 miWSW (240°)4.6 mphOvercast
8:51 AM75.0 °F71.1 °F87 %29.66 in10.0 miVariable3.5 mphOvercast
9:51 AM75.9 °F71.1 °F85 %29.65 in10.0 miWest (270°)6.9 mphOvercast
10:27 AM78.1 °F70.0 °F76 %29.68 in10.0 miWest (280°)8.1 mphPartly Cloudy
10:51 AM79.0 °F71.1 °F77 %29.65 in10.0 miVariable3.5 mphPartly Cloudy
11:32 AM82.0 °F71.1 °F69 %29.67 in10.0 miCalmMostly Cloudy
11:51 AM82.0 °F72.0 °F71 %29.64 in10.0 miCalmOvercast
12:19 PM84.0 °F71.1 °F65 %29.66 in10.0 miVariable4.6 mphScattered Clouds
12:51 PM84.9 °F72.0 °F65 %29.64 in10.0 miNorthMostly Cloudy
1:51 PM84.9 °F71.1 °F63 %29.61 in10.0 miWSW (250°)8.1 mphMostly Cloudy
2:51 PM84.9 °F69.1 °F59 %29.60 in10.0 miNorthMostly Cloudy
3:51 PM84.9 °F66.9 °F55 %29.59 in10.0 miWSW (240°)10.4 mph16.1 mphScattered Clouds
4:51 PM84.9 °F69.1 °F59 %29.57 in10.0 miVariable4.6 mphOvercast
5:51 PM84.0 °F69.1 °F61 %29.57 in10.0 miWSW (240°)5.8 mph0.00 inScattered Clouds
6:51 PM84.0 °F68.0 °F58 %29.57 in10.0 miCalmClear
7:51 PM82.0 °F68.0 °F62 %29.59 in10.0 miVariable3.5 mphMostly Cloudy
8:51 PM80.1 °F69.1 °F69 %29.60 in10.0 miVariable3.5 mphScattered Clouds
9:51 PM80.1 °F69.1 °F69 %29.62 in10.0 miWNW (290°)5.8 mphScattered Clouds
10:51 PM81.0 °F68.0 °F65 %29.63 in10.0 miWest (280°)5.8 mphOvercast
11:51 PM79.0 °F68.0 °F69 %29.63 in10.0 miWest (280°)3.5 mphClear
Hourly data recorded from KNYC, located miles away from New York - Central Park, New York







STORIES FROM OUR PARTNERS